Weather History for Willimantic, CT

Change the Weather History Date:

Thursday, April 24, 2014

  Actual Average Record
Temperature  
Mean Temperature 49 °F -  
Max Temperature 59 °F 62 °F 84 °F (2001)
Min Temperature 41 °F 37 °F 24 °F (1971)
Degree Days  
Heating Degree Days 16    
Moisture  
Dew Point 19 °F    
Average Humidity 32    
Maximum Humidity 49    
Minimum Humidity 22    
Precipitation  
Precipitation 0.00 in - - ()
Sea Level Pressure  
Sea Level Pressure 29.79 in    
Wind  
Wind Speed 14 mph (NW)    
Max Wind Speed 25 mph    
Max Gust Speed 38 mph    
Visibility 10 miles    
Events      
Averages and records for this station are not official NWS values.
T = Trace of Precipitation, MM = Missing Value Source: NWS Daily Summary

Daily Weather History Graph

Daily Weather History Graph

Search for Another Location

Airport:

Trip Planner

Search our weather history database for the weather conditions in past years. The results will help you decide how hot, cold, wet, or windy it might be!

Date:

Astronomy

Apr. 24, 2014 Rise Set
Actual Time 5:55 AM EDT 7:39 PM EDT
Civil Twilight 5:25 AM EDT 8:09 PM EDT
Nautical Twilight 4:49 AM EDT 8:45 PM EDT
Astronomical Twilight 4:11 AM EDT 9:23 PM EDT
Moon 3:08 AM EDT (4/24) 2:47 PM EDT (4/24)
Length of Visible Light 14h 43m
Length of Day
13h 44m
Waning Crescent, 24% of the Moon is Illuminated
Apr 24
Waning Crescent
Apr 29
New
May 6
First Quarter
May 14
Full
May 21
Last Quarter

Hourly Weather History & Observations

Time (EDT) Temp. Windchill Dew Point Humidity Pressure Visibility Wind Dir Wind Speed Gust Speed Precip Events Conditions
12:52 AM 46.9 °F - 27.0 °F 46% 29.70 in 10.0 mi NW 12.7 mph 20.7 mph N/A   Overcast
1:52 AM 45.0 °F 39.3 °F 27.0 °F 49% 29.70 in 10.0 mi NW 11.5 mph 21.9 mph N/A   Partly Cloudy
2:52 AM 44.1 °F 38.1 °F 24.1 °F 45% 29.70 in 10.0 mi NW 11.5 mph 19.6 mph N/A   Clear
3:52 AM 43.0 °F 35.7 °F 21.9 °F 43% 29.71 in 10.0 mi NW 15.0 mph 23.0 mph N/A   Clear
4:52 AM 42.1 °F 36.1 °F 23.0 °F 47% 29.72 in 10.0 mi WNW 10.4 mph - N/A   Clear
5:52 AM 41.0 °F 34.7 °F 21.9 °F 47% 29.73 in 10.0 mi WNW 10.4 mph 19.6 mph N/A   Clear
6:52 AM 41.0 °F 34.7 °F 19.0 °F 41% 29.75 in 10.0 mi NW 10.4 mph 19.6 mph N/A   Clear
7:52 AM 43.0 °F 36.8 °F 14.0 °F 31% 29.77 in 10.0 mi NW 11.5 mph 29.9 mph N/A   Clear
8:52 AM 45.0 °F 38.2 °F 14.0 °F 29% 29.77 in 10.0 mi NW 15.0 mph 25.3 mph N/A   Clear
9:52 AM 46.9 °F - 12.0 °F 24% 29.77 in 10.0 mi NW 20.7 mph 35.7 mph N/A   Clear
10:52 AM 48.9 °F - 14.0 °F 25% 29.78 in 10.0 mi NNW 21.9 mph 34.5 mph N/A   Clear
11:52 AM 51.1 °F - 17.1 °F 26% 29.78 in 10.0 mi NW 19.6 mph 31.1 mph N/A   Clear
12:52 PM 54.0 °F - 19.0 °F 25% 29.77 in 10.0 mi NNW 21.9 mph 34.5 mph N/A   Clear
1:52 PM 57.0 °F - 19.9 °F 24% 29.76 in 10.0 mi NNW 24.2 mph 38.0 mph N/A   Clear
2:52 PM 57.9 °F - 19.0 °F 22% 29.76 in 10.0 mi NNW 19.6 mph 33.4 mph N/A   Clear
3:52 PM 57.9 °F - 19.0 °F 22% 29.77 in 10.0 mi NW 17.3 mph 33.4 mph N/A   Clear
4:52 PM 57.9 °F - 19.0 °F 22% 29.78 in 10.0 mi NNW 25.3 mph 32.2 mph N/A   Clear
5:52 PM 57.9 °F - 19.0 °F 22% 29.79 in 10.0 mi NW 16.1 mph 27.6 mph N/A   Clear
6:52 PM 57.0 °F - 19.0 °F 23% 29.82 in 10.0 mi NNW 16.1 mph 23.0 mph N/A   Clear
7:52 PM 54.0 °F - 19.0 °F 25% 29.86 in 10.0 mi NW 12.7 mph 25.3 mph N/A   Clear
8:52 PM 53.1 °F - 18.0 °F 25% 29.91 in 10.0 mi NW 10.4 mph - N/A   Clear
9:52 PM 52.0 °F - 18.0 °F 26% 29.94 in 10.0 mi North 8.1 mph - N/A   Unknown
10:52 PM 48.9 °F - 21.0 °F 33% 29.96 in 10.0 mi North 5.8 mph - N/A   Clear
11:52 PM 48.0 °F - 21.0 °F 34% 29.96 in 10.0 mi NNW 8.1 mph - N/A   Clear